This is the latest recevied weather packets stored in our database for station/object OE5MMP-13. If no packets are shown the sender has not sent any weather packets the latest 10 day(s).
| Time | Temp. | Humidity | Pressure | Rain* | Wind** | Luminosity | Snow |
|---|---|---|---|---|---|---|---|
| 1788023608 | 20° C | 69% | 1016.8 hPa | 0 mm | - | 31 W/m² | - |
| 1788023027 | 20.56° C | 69% | 1016.9 hPa | 0 mm | - | 46 W/m² | - |
| 1788022406 | 21.11° C | 68% | 1017 hPa | 0 mm | - | 60 W/m² | - |
| 1788021806 | 21.11° C | 68% | 1017.1 hPa | 0 mm | - | 120 W/m² | - |
| 1788021206 | 21.67° C | 67% | 1017.1 hPa | 0 mm | - | 94 W/m² | - |
| 1788020606 | 21.67° C | 66% | 1017.1 hPa | 0 mm | - | 146 W/m² | - |
| 1788020005 | 22.22° C | 66% | 1017.4 hPa | 0 mm | - | 119 W/m² | - |
| 1788019406 | 22.78° C | 62% | 1017.4 hPa | 0 mm | - | 82 W/m² | - |
| 1788018814 | 23.33° C | 54% | 1017.4 hPa | 0 mm | - | 135 W/m² | - |
| 1788018205 | 22.78° C | 53% | 1017.3 hPa | 0 mm | - | 284 W/m² | - |
| 1788017605 | 23.33° C | 55% | 1017.2 hPa | 0 mm | - | 96 W/m² | - |
| 1788017005 | 23.33° C | 54% | 1017.4 hPa | 0 mm | - | 109 W/m² | - |
| 1788016405 | 23.89° C | 52% | 1017.3 hPa | 0 mm | - | 158 W/m² | - |
| 1788015805 | 23.89° C | 53% | 1017.4 hPa | 0 mm | - | 446 W/m² | - |
| 1788015205 | 23.89° C | 53% | 1017.4 hPa | 0 mm | - | 439 W/m² | - |
| 1788014606 | 23.33° C | 53% | 1017.2 hPa | 0 mm | - | 453 W/m² | - |
| 1788014005 | 24.44° C | 52% | 1017.4 hPa | 0 mm | - | 471 W/m² | - |
| 1788013405 | 23.89° C | 54% | 1017.5 hPa | 0 mm | - | 539 W/m² | - |
| 1788012805 | 23.33° C | 57% | 1017.4 hPa | 0 mm | - | 571 W/m² | - |
| 1788012205 | 23.33° C | 56% | 1017.5 hPa | 0 mm | - | 565 W/m² | - |
| 1788011605 | 23.33° C | 56% | 1017.6 hPa | 0 mm | - | 576 W/m² | - |
| 1788011005 | 23.33° C | 58% | 1017.7 hPa | 0 mm | - | 599 W/m² | - |
| 1788010405 | 22.78° C | 58% | 1017.7 hPa | 0 mm | - | 628 W/m² | - |
| 1788009805 | 22.78° C | 58% | 1017.8 hPa | 0 mm | - | 638 W/m² | - |
| 1788009205 | 22.22° C | 58% | 1017.8 hPa | 0 mm | - | 654 W/m² | - |
* Rain latest hour (hover to see other rain measurements)
** Current wind speed in m/s (hover to see current wind gust speed)